Location: Nied?wied?
(53.3665°N, 14.8184°E)
Time: 17:44:32
(UTC+00:00)

ISS - Pass Details

Date: 17 May 2021
Orbit: 417 x 422 km, 51.6° (Epoch: 14 June)

Event Time Altitude Azimuth Distance (km) Brightness Sun altitude
Rises 01:41:12 0° 276° (W) 2,375 -0.3 -9.1°
Reaches altitude 10° 01:44:12 10° 247° (WSW) 1,507 -1.5 -8.9°
Maximum altitude 01:45:47 13° 219° (SW) 1,342 -1.9 -8.7°
Drops below altitude 10° 01:47:23 10° 191° (S) 1,503 -1.5 -8.6°
Sets 01:50:22 0° 162° (SSE) 2,364 -0.2 -8.3°
